EW4819 Weather Reports


Display with metric or nautical units.
time (UTC)temp
F
wind
direction
speed
MPH
gust
MPH
rain 1hr
in
rain 24hr
in
rain mn
in
humidity
%
barometer
mb
20260505100002 59 349 3.0 10.0 0.00 0.00 0.00 73 1011.3
20260505095502 59 355 4.0 14.0 0.00 0.00 0.00 74 1011.3
20260505095001 59 14 4.0 14.0 0.00 0.00 0.00 73 1011.4
20260505094502 59 39 3.0 10.0 0.00 0.00 0.00 75 1011.5
20260505094023 58 45 4.0 10.0 0.00 0.00 0.00 76 1011.5
20260505093502 57 41 4.0 10.0 0.00 0.00 0.00 78 1011.5
20260505093002 57 39 4.0 10.0 0.00 0.00 0.00 80 1011.6
20260505092502 56 22 3.0 8.0 0.00 0.00 0.00 80 1011.6
20260505092002 56 15 3.0 8.0 0.00 0.00 0.00 81 1011.7
20260505091502 56 15 3.0 7.0 0.00 0.00 0.00 80 1011.8
20260505091003 56 3 3.0 6.0 0.00 0.00 0.00 80 1011.7
20260505090502 56 6 3.0 6.0 0.00 0.00 0.00 80 1011.7
20260505090025 56 359 3.0 6.0 0.00 0.00 0.00 80 1011.7
20260505085503 56 357 3.0 9.0 0.00 0.00 0.00 81 1011.8
20260505085002 56 6 2.0 9.0 0.00 0.00 0.00 81 1011.8
20260505084502 56 343 2.0 8.0 0.00 0.00 0.00 81 1011.8
20260505084004 56 338 3.0 11.0 0.00 0.00 0.00 80 1011.8
20260505083524 56 342 3.0 11.0 0.00 0.00 0.00 80 1011.8
20260505083003 56 343 2.0 6.0 0.00 0.00 0.00 80 1011.8
20260505082502 56 355 2.0 8.0 0.00 0.00 0.00 80 1011.8
20260505082003 56 13 2.0 8.0 0.00 0.00 0.00 80 1011.7
20260505081502 56 4 3.0 8.0 0.00 0.00 0.00 81 1011.7
20260505081023 56 355 3.0 8.0 0.00 0.00 0.00 82 1011.8
20260505080502 56 12 3.0 8.0 0.00 0.00 0.00 82 1011.9
20260505080002 55 24 3.0 8.0 0.00 0.00 0.00 82 1011.8
20260505075502 56 16 3.0 7.0 0.00 0.00 0.00 81 1011.8
20260505075002 56 16 2.0 6.0 0.00 0.00 0.00 82 1011.9
20260505074502 55 21 2.0 6.0 0.00 0.00 0.00 84 1011.8
20260505074002 55 16 2.0 7.0 0.00 0.00 0.00 85 1011.8
20260505073502 54 19 3.0 7.0 0.00 0.00 0.00 86 1011.7
20260505073002 54 359 2.0 8.0 0.00 0.00 0.00 87 1011.7
20260505072503 53 346 2.0 8.0 0.00 0.00 0.00 88 1011.6
20260505072002 53 349 2.0 8.0 0.00 0.00 0.00 89 1011.7
20260505071503 52 346 2.0 6.0 0.00 0.00 0.00 90 1011.8
20260505071002 52 356 2.0 6.0 0.00 0.00 0.00 90 1011.8
20260505070502 51 10 2.0 4.0 0.00 0.00 0.00 90 1011.8
20260505070002 51 6 1.0 4.0 0.00 0.00 0.00 91 1011.9
20260505065502 51 2 1.0 6.0 0.00 0.00 0.00 90 1011.9
20260505065023 50 2 1.0 6.0 0.00 0.00 0.00 91 1011.8
20260505064503 50 357 1.0 4.0 0.00 0.00 0.00 91 1011.8
20260505064002 50 358 1.0 4.0 0.00 0.00 0.00 91 1011.8
20260505063502 50 4 1.0 3.0 0.00 0.00 0.00 91 1012.0
20260505063023 50 7 1.0 4.0 0.00 0.00 0.00 91 1012.0
20260505062502 50 23 1.0 4.0 0.00 0.00 0.00 91 1011.9
20260505062023 50 24 1.0 3.0 0.00 0.00 0.00 91 1011.9
20260505061502 50 5 1.0 5.0 0.00 0.00 0.00 91 1011.8
20260505061002 50 353 1.0 5.0 0.00 0.00 0.00 91 1011.8
20260505060502 50 347 1.0 3.0 0.00 0.00 0.00 91 1011.8
20260505060002 50 17 1.0 5.0 0.00 0.00 0.00 91 1011.9
20260505055502 50 15 1.0 5.0 0.00 0.00 0.00 90 1011.9
20260505055002 50 1 0.0 3.0 0.00 0.00 0.00 91 1011.9
20260505054502 50 11 0.0 3.0 0.00 0.00 0.00 90 1011.9
20260505054002 50 34 1.0 5.0 0.00 0.00 0.00 91 1011.9
20260505053503 50 48 0.0 5.0 0.00 0.00 0.00 91 1011.9
20260505053003 50 31 0.0 3.0 0.00 0.00 0.00 90 1011.9
20260505052503 50 14 0.0 3.0 0.00 0.00 0.00 90 1011.8
20260505052003 50 10 0.0 3.0 0.00 0.00 0.00 90 1011.7
20260505051505 50 12 1.0 4.0 0.00 0.00 0.00 90 1011.7
20260505051004 50 11 1.0 4.0 0.00 0.00 0.00 90 1011.7
20260505050503 50 350 0.0 4.0 0.00 0.00 0.00 90 1011.7
20260505041502 51 2 1.0 3.0 0.00 0.00 0.00 90 1011.8
20260505041002 52 3 1.0 3.0 0.00 0.00 0.00 90 1011.8
20260505040523 52 356 0.0 3.0 0.00 0.00 0.00 90 1011.9
20260505040002 52 355 0.0 2.0 0.00 0.00 0.00 90 1011.9
20260505035502 52 357 0.0 2.0 0.00 0.00 0.00 90 1011.9
20260505035002 52 5 0.0 2.0 0.00 0.00 0.00 90 1011.9
20260505034502 52 334 0.0 2.0 0.00 0.00 0.00 90 1011.9
20260505034002 53 335 0.0 2.0 0.00 0.00 0.00 90 1011.9
20260505033502 53 343 0.0 2.0 0.00 0.00 0.00 90 1012.0
20260505033002 53 346 0.0 3.0 0.00 0.00 0.00 90 1011.9
20260505032502 53 351 0.0 3.0 0.00 0.00 0.00 90 1012.0
20260505032002 53 360 0.0 2.0 0.00 0.00 0.00 90 1012.0
20260505031502 53 360 0.0 2.0 0.00 0.00 0.00 90 1012.0
20260505031023 53 2 0.0 2.0 0.00 0.00 0.00 90 1012.0
20260505030502 53 346 0.0 3.0 0.00 0.00 0.00 90 1012.0
20260505030002 53 340 0.0 4.0 0.00 0.00 0.00 90 1012.0
20260505025502 53 341 0.0 4.0 0.00 0.00 0.00 90 1011.9
20260505025002 53 344 0.0 3.0 0.00 0.00 0.00 90 1012.0
20260505024502 53 355 0.0 3.0 0.00 0.00 0.00 90 1012.0
20260505024002 53 23 0.0 2.0 0.00 0.00 0.00 90 1012.0
20260505023502 53 23 0.0 2.0 0.00 0.00 0.00 90 1012.0
20260505023002 53 4 0.0 2.0 0.00 0.00 0.00 90 1011.9
20260505022504 53 358 0.0 2.0 0.00 0.00 0.00 90 1011.9
20260505022003 53 358 0.0 2.0 0.00 0.00 0.00 90 1011.9
20260505021504 54 5 0.0 2.0 0.00 0.00 0.00 90 1012.0
20260505021003 54 5 0.0 2.0 0.00 0.00 0.00 90 1011.9
20260505020504 54 0 0.0 1.0 0.00 0.00 0.00 90 1012.0
20260505020004 54 4 0.0 3.0 0.00 0.00 0.00 90 1012.0
20260505015502 54 4 0.0 3.0 0.00 0.00 0.00 90 1012.0
20260505015002 54 334 0.0 3.0 0.00 0.00 0.00 90 1012.0
20260505014502 54 325 0.0 3.0 0.00 0.00 0.00 90 1012.1
20260505014002 54 353 0.0 2.0 0.00 0.00 0.00 90 1012.2
20260505013502 54 354 0.0 2.0 0.00 0.00 0.00 90 1012.2
20260505013002 54 350 0.0 2.0 0.00 0.00 0.00 90 1012.3
20260505012502 54 357 0.0 1.0 0.00 0.00 0.00 90 1012.4
20260505012023 54 4 0.0 1.0 0.00 0.00 0.00 90 1012.4
20260505011502 54 348 0.0 2.0 0.00 0.00 0.00 90 1012.4
20260505011023 54 340 0.0 2.0 0.00 0.00 0.00 90 1012.4
20260505010523 54 331 0.0 2.0 0.00 0.00 0.00 90 1012.4
20260505010002 54 339 0.0 2.0 0.00 0.00 0.00 90 1012.5
20260505005523 54 331 0.0 2.0 0.00 0.00 0.00 90 1012.5
20260505005023 54 326 0.0 2.0 0.00 0.00 0.00 90 1012.5
20260505004504 54 309 0.0 1.0 0.00 0.00 0.00 90 1012.5
20260505004002 54 312 0.0 2.0 0.00 0.00 0.00 90 1012.5
20260505003502 54 320 0.0 2.0 0.00 0.00 0.00 90 1012.5
20260505003002 54 355 0.0 2.0 0.00 0.00 0.00 90 1012.6
20260505002524 54 355 0.0 2.0 0.00 0.00 0.00 90 1012.5
20260505002004 54 355 0.0 1.0 0.00 0.00 0.00 90 1012.6
20260505001502 54 355 0.0 2.0 0.00 0.00 0.00 90 1012.7
20260505001002 54 9 0.0 2.0 0.00 0.00 0.00 90 1012.6
20260505000503 54 2 0.0 2.0 0.00 0.00 0.00 90 1012.7
20260505000004 54 319 1.0 3.0 0.00 0.00 0.00 90 1012.7
20260504235503 54 320 1.0 3.0 0.00 0.00 0.00 90 1012.8
20260504235004 54 330 0.0 3.0 0.00 0.00 0.00 90 1012.8
20260504234502 54 356 0.0 2.0 0.00 0.00 0.00 90 1012.7
20260504234003 54 341 0.0 2.0 0.00 0.00 0.00 90 1012.8
20260504233503 54 308 0.0 1.0 0.00 0.00 0.00 90 1012.8
20260504233002 54 318 0.0 2.0 0.00 0.00 0.00 90 1012.8
20260504232503 54 327 0.0 2.0 0.00 0.00 0.00 90 1012.7
20260504232002 54 331 0.0 2.0 0.00 0.00 0.00 90 1012.7
20260504231504 54 340 0.0 2.0 0.00 0.00 0.00 90 1012.7
20260504231005 55 341 0.0 2.0 0.00 0.00 0.00 90 1012.7
20260504230504 55 339 0.0 3.0 0.00 0.00 0.00 90 1012.7
20260504230005 55 336 0.0 3.0 0.00 0.00 0.00 90 1012.8
20260504225504 55 348 0.0 3.0 0.00 0.00 0.00 90 1012.8
20260504225003 55 17 0.0 2.0 0.00 0.00 0.00 90 1012.8
20260504224503 55 349 0.0 3.0 0.00 0.00 0.00 90 1012.7
20260504224003 55 340 1.0 3.0 0.00 0.00 0.00 90 1012.6
20260504223503 55 341 0.0 3.0 0.00 0.00 0.00 90 1012.8
20260504223024 55 39 0.0 2.0 0.00 0.00 0.00 90 1012.9
20260504222503 55 38 0.0 2.0 0.00 0.00 0.00 89 1012.9
20260504222003 55 338 0.0 4.0 0.00 0.00 0.00 89 1012.9
20260504221524 55 347 0.0 4.0 0.00 0.00 0.00 89 1012.9
20260504221024 55 20 0.0 3.0 0.00 0.00 0.00 89 1012.9
20260504220524 55 360 1.0 3.0 0.00 0.00 0.00 89 1012.8
20260504220003 55 349 1.0 4.0 0.00 0.00 0.00 89 1012.8
20260504215503 55 19 0.0 3.0 0.00 0.00 0.00 89 1012.9
20260504215003 55 19 1.0 3.0 0.00 0.00 0.00 89 1012.9
20260504214503 56 7 1.0 3.0 0.00 0.00 0.00 89 1012.9
20260504214024 56 360 1.0 3.0 0.00 0.00 0.00 89 1013.0
20260504213503 56 350 1.0 3.0 0.00 0.00 0.00 89 1012.9
20260504213003 56 345 1.0 3.0 0.00 0.00 0.00 89 1012.9
20260504212502 56 349 1.0 5.0 0.00 0.00 0.00 89 1012.9
20260504212003 56 349 1.0 5.0 0.00 0.00 0.00 88 1012.9
20260504211503 56 350 0.0 3.0 0.00 0.00 0.00 88 1012.9
20260504211003 56 355 0.0 3.0 0.00 0.00 0.00 88 1012.9
20260504210503 56 15 1.0 4.0 0.00 0.00 0.00 88 1012.9
20260504210024 56 19 1.0 4.0 0.00 0.00 0.00 88 1012.9
20260504205525 57 19 1.0 4.0 0.00 0.00 0.00 88 1013.0
20260504205024 57 15 1.0 4.0 0.00 0.00 0.00 88 1013.0
20260504204524 57 360 1.0 3.0 0.00 0.00 0.00 87 1013.0
20260504204003 57 2 1.0 3.0 0.00 0.00 0.00 87 1013.0
20260504203503 57 9 0.0 2.0 0.00 0.00 0.00 87 1012.9
20260504203003 57 1 0.0 3.0 0.00 0.00 0.00 87 1012.9
20260504202503 57 3 1.0 3.0 0.00 0.00 0.00 87 1012.9
20260504202003 57 12 1.0 3.0 0.00 0.00 0.00 87 1012.9
20260504201503 57 21 1.0 3.0 0.00 0.00 0.00 86 1012.8
20260504201004 57 22 1.0 4.0 0.00 0.00 0.00 86 1012.8
20260504200524 57 23 1.0 4.0 0.00 0.00 0.00 86 1012.8
20260504200026 57 35 1.0 3.0 0.00 0.00 0.00 86 1012.8
20260504195504 57 39 1.0 4.0 0.00 0.00 0.00 86 1012.8
20260504195004 58 34 1.0 4.0 0.00 0.00 0.00 85 1012.8
20260504194503 58 43 1.0 7.0 0.00 0.00 0.00 85 1012.7
20260504194005 58 39 1.0 7.0 0.00 0.00 0.00 85 1012.7
20260504193503 58 30 1.0 4.0 0.00 0.00 0.00 85 1012.6
20260504193003 58 24 1.0 4.0 0.00 0.00 0.00 84 1012.5
20260504192503 58 17 1.0 3.0 0.00 0.00 0.00 84 1012.5
20260504192001 58 31 1.0 3.0 0.00 0.00 0.00 84 1012.5
20260504191501 59 57 0.0 3.0 0.00 0.00 0.00 84 1012.5
20260504191001 59 53 0.0 2.0 0.00 0.00 0.00 84 1012.4
20260504190522 59 39 1.0 5.0 0.00 0.00 0.00 84 1012.4
20260504190022 59 35 1.0 5.0 0.00 0.00 0.00 84 1012.4
20260504185522 59 38 1.0 5.0 0.00 0.00 0.00 83 1012.3
20260504185022 59 37 2.0 5.0 0.00 0.00 0.00 83 1012.3
20260504184501 59 26 1.0 4.0 0.00 0.00 0.00 83 1012.3
20260504184001 60 41 1.0 5.0 0.00 0.00 0.00 82 1012.2
20260504183501 60 56 1.0 5.0 0.00 0.00 0.00 82 1012.2
20260504183022 60 25 0.0 2.0 0.00 0.00 0.00 82 1012.2
20260504182501 60 45 1.0 3.0 0.00 0.00 0.00 81 1012.2
20260504182001 60 84 1.0 3.0 0.00 0.00 0.00 81 1012.2
20260504181522 60 134 0.0 2.0 0.00 0.00 0.00 80 1012.1
20260504181001 60 144 0.0 1.0 0.00 0.00 0.00 80 1012.1
20260504180522 60 146 1.0 3.0 0.00 0.00 0.00 80 1012.1
20260504180002 60 136 1.0 3.0 0.00 0.00 0.00 81 1012.1
20260504175501 60 90 1.0 4.0 0.00 0.00 0.00 81 1012.0
20260504175001 60 78 1.0 4.0 0.00 0.00 0.00 82 1012.0
20260504174501 60 65 1.0 4.0 0.00 0.00 0.00 81 1012.0
20260504174022 60 48 1.0 7.0 0.00 0.00 0.00 81 1012.0
20260504173501 60 44 2.0 9.0 0.00 0.00 0.00 81 1011.9
20260504173001 60 46 1.0 4.0 0.00 0.00 0.00 80 1011.9
20260504172503 60 45 1.0 7.0 0.00 0.00 0.00 80 1011.9
20260504172001 61 46 2.0 7.0 0.00 0.00 0.00 79 1011.9
20260504171501 61 48 3.0 6.0 0.00 0.00 0.00 77 1011.9
20260504171001 61 46 3.0 6.0 0.00 0.00 0.00 76 1011.9
20260504170502 62 50 2.0 9.0 0.00 0.00 0.00 75 1011.8
20260504151003 64 29 1.0 4.0 0.00 0.00 0.00 68 1011.7
20260504150501 64 11 2.0 5.0 0.00 0.00 0.00 69 1011.6
20260504141003 66 182 3.0 7.0 0.00 0.00 0.00 64 1011.7
20260504140502 66 179 3.0 7.0 0.00 0.00 0.00 63 1011.8
20260504130501 66 200 1.0 3.0 0.00 0.00 0.00 67 1011.8
20260504110502 64 110 3.0 6.0 0.00 0.00 0.00 67 1012.3
20260504100502 59 54 1.0 3.0 0.00 0.00 0.00 79 1012.7